User: anonymous   Login
Location: Unspecified
(0.0000°N, 0.0000°E)
Time: 15:18:10
(UTC+00:00)
Language:

GALILEO 7 (263) - Orbit

View from above orbital plane
View from above orbital plane
View from above satellite
View from above satellite

Ground track
Ground track

The orbit data is extracted from the following two-line orbital elements,

1 40544U 15017A   18230.02654328 -.00000054  00000-0  00000+0 0  9994
2 40544  55.9450  60.0241 0001727 215.2448 144.7956  1.70475094 21100
Epoch (UTC): 18 August 2018 00:38:13
Eccentricity: 0.0001727
inclination: 55.9450°
perigee height: 23217 km
apogee height: 23227 km
right ascension of ascending node: 60.0241°
argument of perigee: 215.2448°
revolutions per day: 1.70475094
mean anomaly at epoch: 144.7956°
orbit number at epoch: 2110

The dashed part of the orbit path shows where the satellite is in the earth's shadow,  

DLR